Temperature
26 26 26 27 27 28 27 27 26 26 26 27 25 23 23 23 23 23 22 21 20 18 17 17 16 16 15 15 15 15 15 16 16 15 15 15 15 15 15 15 15 15 15 15
26 26 28 28 29 28 28 27 25 25 26 26 25 23 23 24 24 23 23 21 20 18 17 16 16 15 15 15 15 15 15 15 15 15 15 15 14 14 14 14 15 15 15 15
26 27 28 28 28 28 27 27 26 25 26 26 25 23 23 24 24 24 23 22 20 18 17 16 15 15 15 15 15 15 15 15 15 15 14 14 14 14 14 14 14 14 14 14
27 28 28 27 27 27 26 27 27 26 26 25 24 23 23 23 23 24 24 22 21 19 17 16 15 15 15 14 14 14 15 15 15 14 14 14 14 13 13 13 13 13 14 14
27 28 27 27 27 28 27 28 27 27 26 25 24 23 22 23 22 22 23 22 21 19 18 16 16 15 14 14 14 14 14 14 14 14 14 14 13 13 13 13 13 13 13 13
27 28 28 28 28 28 28 28 27 26 25 23 24 23 22 22 21 21 22 22 20 19 17 16 15 15 14 14 13 13 13 13 13 13 13 13 13 13 12 12 12 12 12 12
25 27 28 28 27 28 27 26 24 23 22 22 23 23 21 21 21 21 21 20 19 18 17 16 15 14 14 13 13 13 13 13 13 13 12 12 12 12 12 12 12 11 11 12
23 24 26 27 27 26 26 25 22 21 21 21 21 21 20 20 21 21 21 20 19 18 16 15 14 14 13 13 13 13 12 12 12 12 12 12 11 11 11 11 11 11 11 11
23 24 26 27 27 27 25 24 24 23 22 22 21 20 20 20 21 21 20 19 18 17 16 15 14 13 13 13 12 12 12 12 11 11 11 11 11 11 11 10 10 10 10 10
24 23 25 26 27 27 27 25 23 22 21 21 21 20 19 19 19 19 19 18 17 16 15 14 14 13 13 12 12 12 11 11 11 11 11 10 10 10 10 10 10 10 10 10
25 23 24 25 25 24 25 25 24 23 22 21 20 19 19 19 19 19 18 17 16 15 15 14 13 13 12 12 12 11 11 11 11 11 10 10 10 10 10 10 10 10 9 9
25 24 23 24 25 26 25 25 25 23 22 21 20 18 20 19 19 18 17 16 15 15 14 13 13 12 12 11 11 11 11 10 10 10 10 10 9 9 9 9 9 9 9 9
24 23 22 23 23 23 24 25 25 24 23 21 20 18 19 19 18 17 16 15 14 14 13 13 12 12 11 11 11 11 10 10 10 10 9 9 9 9 9 9 9 9 9 9
23 23 22 21 21 22 22 24 25 24 22 21 20 18 18 18 18 17 15 14 13 13 13 12 12 11 11 11 10 10 10 10 10 9 9 9 9 9 8 8 8 8 8 8
23 22 22 23 23 23 23 23 24 23 23 21 20 19 18 18 17 16 15 13 13 12 12 12 11 11 11 10 10 10 10 9 9 9 9 9 9 8 8 8 8 8 8 8
23 21 22 22 23 23 23 23 23 23 22 21 20 18 18 17 16 15 14 13 12 12 12 11 11 11 10 10 10 9 9 9 9 9 9 8 8 8 8 8 8 8 8 8
23 21 21 21 23 23 21 22 22 22 21 21 19 18 18 17 16 15 14 13 13 12 11 11 11 10 10 10 9 9 9 9 9 9 8 8 8 8 8 8 8 8 8 8
22 21 21 21 21 20 20 22 22 21 20 20 19 18 17 16 15 14 13 13 12 12 11 10 10 10 9 9 9 9 9 9 8 8 8 8 8 8 8 8 8 8 8 8
23 21 21 20 20 19 20 21 21 20 18 19 19 18 17 16 15 13 13 12 12 11 11 10 10 9 9 9 9 9 9 8 8 8 8 8 8 8 8 8 8 8 8 8
23 22 21 20 19 18 18 21 21 20 18 18 18 17 17 16 15 13 12 12 11 11 10 10 9 9 9 9 9 8 8 8 8 8 8 8 8 8 8 8 8 8 8 8
21 21 21 20 19 18 19 20 21 18 17 17 17 16 16 15 14 12 11 11 10 10 10 9 9 9 9 9 8 8 8 8 8 8 8 8 8 8 8 8 8 7 7 8
21 21 21 20 18 17 19 20 18 17 17 17 16 15 14 13 13 12 11 10 10 10 9 9 9 9 8 8 8 8 8 8 8 8 8 8 7 7 7 8 7 7 8 8
21 20 20 19 18 17 17 17 17 17 16 16 15 15 14 13 12 11 11 10 10 10 9 9 9 9 8 8 8 8 8 8 8 8 8 8 8 8 7 8 8 8 8 8
21 21 20 19 18 18 17 17 17 16 16 15 15 14 14 13 12 11 11 10 10 10 9 9 9 9 8 8 8 8 8 8 8 8 8 8 8 8 8 8 8 8 8 8
21 21 20 18 18 18 17 17 17 16 16 15 15 14 14 13 12 11 11 10 10 9 9 9 9 9 8 8 8 8 8 8 8 8 8 8 8 8 8 8 8 8 8 8
21 20 19 18 18 18 17 17 16 16 15 15 14 14 13 13 12 11 11 10 10 9 9 9 9 9 8 8 8 8 8 8 8 8 8 8 8 8 8 8 8 8 8 8
Wind_Speed
11 12 11 12 14 12 10 10 11 10 9 10 9 12 13 14 14 14 14 14 15 14 13 12 11 10 9 7 7 6 5 4 2 2 1 1 1 1 2 2 3 3 3 4
10 13 12 11 12 12 11 9 8 7 8 8 8 11 13 15 14 14 14 15 15 15 13 12 11 10 9 7 6 6 5 4 3 2 1 1 1 1 2 2 3 3 4 4
11 7 9 10 11 12 12 9 9 8 8 9 7 8 11 12 12 13 14 16 16 16 15 13 12 10 9 8 6 5 5 5 4 3 2 2 1 1 2 2 2 3 4 5
8 8 7 9 9 8 7 6 7 10 10 6 8 7 10 11 10 12 14 15 16 16 15 14 12 11 10 9 8 7 5 5 4 4 4 3 2 2 2 1 2 2 3 3
6 7 7 7 8 8 7 8 9 10 9 8 9 7 8 10 11 11 12 13 14 16 16 14 13 11 10 9 8 7 6 5 5 5 5 4 4 3 2 2 1 1 2 4
9 7 7 7 9 9 7 7 9 7 7 11 10 10 8 9 10 11 11 11 12 15 15 15 13 12 10 9 9 8 7 6 6 6 6 5 5 4 4 3 2 2 2 3
7 8 7 6 7 6 5 5 4 5 6 9 6 6 3 4 6 9 11 12 13 14 15 15 14 12 10 9 9 8 7 6 5 6 6 5 5 4 4 4 3 3 3 4
5 7 7 5 6 5 6 6 5 5 5 7 5 4 2 2 6 8 11 12 13 13 14 14 13 11 10 9 9 8 7 6 6 6 5 5 5 4 4 5 4 4 4 4
5 7 7 7 8 7 6 7 6 6 9 7 4 2 1 2 7 8 11 12 12 12 13 13 12 10 10 9 8 8 7 6 5 5 5 4 5 5 5 4 4 4 4 3
6 5 6 7 8 8 6 5 3 5 6 6 3 2 1 3 6 8 11 12 12 12 12 13 11 10 9 8 8 7 7 6 5 5 4 5 5 5 5 5 5 5 5 4
4 6 6 5 3 5 6 5 3 4 5 5 4 0 0 4 8 9 10 11 11 11 11 11 10 10 8 8 8 7 6 5 5 5 5 5 5 4 4 4 5 4 4 4
2 4 6 6 4 6 8 7 5 5 5 5 4 1 4 5 8 9 10 10 10 10 10 10 9 8 7 6 6 6 5 4 4 4 4 5 4 4 4 5 4 4 4 4
3 2 5 5 2 4 6 7 6 5 4 4 4 1 4 8 9 9 9 10 9 9 9 8 8 7 6 5 5 5 4 3 3 4 5 5 4 5 4 4 4 3 4 4
3 5 5 5 3 3 6 8 6 4 3 3 0 4 5 6 8 10 10 10 9 8 7 8 7 6 5 5 4 4 3 3 3 5 5 4 4 4 3 3 3 3 4 4
2 5 6 6 5 3 3 5 5 5 4 2 4 6 5 5 8 10 10 10 9 7 6 7 6 5 5 5 4 4 3 3 4 4 4 4 4 3 3 3 4 4 5 5
2 4 6 7 5 1 1 3 4 4 5 5 7 7 7 8 8 9 8 8 8 7 6 6 6 5 4 5 4 3 3 3 3 4 3 3 3 3 3 3 3 4 5 5
3 3 5 6 4 2 1 4 3 5 6 6 6 6 8 7 7 6 7 7 7 7 7 6 5 4 4 4 4 3 3 3 3 3 3 3 4 3 3 3 4 4 4 4
3 4 3 4 4 2 2 5 5 7 9 9 8 7 8 7 8 7 7 7 7 7 7 6 5 5 4 4 4 4 4 4 3 3 3 3 3 3 3 3 3 3 3 4
3 3 3 2 2 1 2 3 3 4 6 8 7 7 7 9 8 7 6 6 7 7 7 6 5 5 5 5 5 4 4 3 4 4 3 3 3 3 3 3 3 3 3 3
4 4 3 2 1 0 2 4 2 2 4 6 6 5 5 4 2 3 5 6 7 8 6 6 5 6 5 5 4 4 4 4 4 3 3 3 2 2 3 2 2 2 2 2
3 4 4 2 1 3 3 4 2 1 3 5 6 6 5 5 5 7 7 8 8 8 7 6 6 5 5 4 4 4 4 4 3 3 3 3 2 2 3 2 2 1 1 2
1 2 1 1 0 2 7 4 4 5 6 6 7 8 9 9 10 10 9 9 8 8 7 6 5 6 5 4 4 4 4 4 3 3 3 3 2 2 2 1 1 1 2 1
3 4 3 5 5 6 8 8 7 7 7 7 7 9 8 8 10 10 10 8 8 8 7 5 5 6 5 4 4 4 3 3 4 4 3 2 2 2 1 0 0 0 0 0
4 4 5 6 8 9 9 9 7 8 8 8 8 8 8 9 10 10 9 8 7 7 7 6 6 6 5 4 4 3 3 3 3 3 2 1 2 2 1 2 2 2 3 3
4 3 5 8 9 9 8 8 8 9 9 9 8 8 8 9 9 9 8 7 7 7 6 5 5 5 6 5 4 4 4 4 3 2 2 1 1 3 2 3 4 5 5 5
4 4 3 5 7 6 7 8 9 8 8 8 8 9 9 8 8 8 8 7 7 7 6 6 5 5 5 5 4 3 3 4 3 2 1 1 2 2 2 3 3 6 4 4
Wind_Direction
213 227 229 218 221 233 228 222 214 218 212 215 178 162 178 189 178 169 158 154 148 136 132 127 122 117 110 102 96 86 73 63 48 50 68 111 109 106 95 86 68 25 341 328
220 231 240 235 230 239 238 227 216 221 211 219 193 180 184 193 184 172 167 158 146 141 139 136 132 124 117 108 98 88 75 59 44 38 29 55 74 96 116 81 59 25 355 350
229 236 234 236 234 235 243 228 202 214 198 205 198 198 191 191 185 178 172 158 152 154 149 146 139 132 125 116 105 91 70 54 41 28 39 53 73 67 86 83 63 28 14 15
232 237 233 229 238 237 247 243 216 214 214 210 213 222 201 191 191 188 178 166 162 157 150 148 144 138 131 122 109 95 83 65 49 46 51 55 74 67 52 57 83 45 36 29
242 222 227 236 239 241 245 240 242 233 227 234 222 232 222 194 193 200 192 175 164 153 150 147 142 134 125 118 112 103 91 74 58 57 60 49 59 60 63 55 82 64 66 48
259 243 226 230 239 244 250 246 246 249 245 244 239 241 224 199 200 203 191 169 153 148 145 138 133 127 124 121 116 108 98 82 69 62 59 56 59 56 48 34 29 32 58 60
271 255 243 233 241 243 260 258 250 247 242 256 283 264 250 196 180 192 177 162 150 146 140 138 137 134 131 126 120 115 109 96 83 73 64 58 57 57 51 32 31 31 40 45
254 252 247 246 249 252 251 245 243 250 258 264 268 261 233 214 160 164 152 139 138 140 138 136 136 134 133 128 123 115 107 98 88 81 69 58 50 52 51 31 24 35 35 39
249 241 246 247 244 252 237 250 264 277 277 268 231 214 156 125 115 121 123 127 133 130 130 132 134 132 126 120 115 115 111 106 99 92 86 78 66 56 48 35 31 32 22 28
274 264 249 250 253 257 258 247 270 267 282 286 251 208 202 126 112 119 121 122 121 121 127 133 134 130 125 122 116 114 113 108 99 93 84 84 73 63 51 43 40 29 21 18
283 280 254 237 255 276 280 266 264 273 276 288 291 278 24 162 139 131 125 122 122 125 130 132 131 127 127 125 122 119 112 109 104 96 86 83 77 68 57 45 38 28 16 8
288 299 288 264 266 287 280 282 276 277 288 297 305 37 21 98 109 120 121 120 118 117 124 126 127 127 130 129 122 115 114 114 109 104 98 87 75 66 55 47 35 28 19 17
326 300 284 265 285 319 301 300 295 290 293 287 289 124 63 90 102 104 108 111 110 111 115 121 121 125 127 125 120 117 117 115 113 105 95 86 74 65 54 42 32 23 25 26
290 279 279 279 276 251 283 298 317 320 298 302 316 122 92 96 107 110 111 112 113 111 111 120 119 118 120 118 115 113 106 104 106 98 97 91 79 71 56 43 32 28 32 33
281 277 278 272 265 240 266 310 339 358 349 350 81 104 107 108 109 114 117 118 117 116 113 115 117 116 114 117 119 118 113 95 92 94 98 94 86 78 62 47 36 31 33 36
205 279 285 272 257 219 343 343 354 12 21 50 79 88 99 100 101 107 118 127 130 130 125 118 114 116 124 135 138 133 119 105 98 93 90 86 86 76 62 51 47 40 39 33
221 243 275 280 290 283 338 356 26 44 33 36 59 91 104 97 99 111 127 134 133 131 130 125 124 120 126 137 133 124 111 103 100 98 96 88 82 72 57 53 50 43 41 40
236 262 269 280 290 250 50 35 48 71 60 63 78 89 95 97 96 98 116 126 126 126 125 126 127 124 125 130 128 126 119 115 114 107 99 89 79 70 55 51 50 48 39 34
203 250 274 275 273 124 95 36 28 76 72 58 80 91 99 103 97 89 94 113 126 128 126 127 134 133 129 128 126 126 123 120 110 102 97 91 85 73 63 62 52 51 49 43
190 221 248 258 280 334 55 35 26 101 99 56 71 90 97 120 115 107 94 99 112 117 119 122 128 124 122 121 121 125 120 110 106 102 91 82 76 76 76 64 54 56 51 50
207 220 241 265 276 95 25 0 320 335 82 58 66 81 88 67 74 115 111 107 109 112 115 121 125 123 124 125 126 125 122 118 111 115 114 106 84 82 88 71 62 65 62 58
303 293 298 293 172 77 15 38 53 79 85 80 81 91 90 93 103 111 113 114 119 121 122 125 125 123 126 125 123 120 122 128 118 112 110 106 94 93 95 96 58 58 79 88
48 42 36 52 86 92 70 79 85 94 94 93 95 102 105 109 112 116 118 121 124 125 128 129 129 123 124 128 128 124 123 117 111 111 113 109 92 81 81 74 94 36 141 316
107 82 103 99 106 104 97 97 97 94 94 95 102 110 113 114 120 125 128 130 130 129 131 136 135 136 135 134 133 128 127 115 115 120 114 104 103 106 64 1 16 31 25 22
78 97 101 113 120 114 102 105 102 101 101 100 103 106 109 118 123 127 131 134 134 131 132 139 137 134 134 137 139 131 127 130 129 125 127 133 112 97 82 63 41 47 54 49
59 81 117 119 129 120 118 112 111 110 107 108 110 110 113 118 122 125 128 129 132 135 138 139 138 134 134 138 135 134 134 132 135 147 161 149 120 128 147 133 106 63 78 91
Height
1485 1486 1482 1478 1476 1475 1476 1480 1486 1485 1480 1482 1488 1496 1498 1500 1502 1506 1510 1516 1521 1526 1529 1533 1535 1537 1538 1539 1540 1542 1543 1544 1544 1545 1546 1546 1547 1547 1547 1548 1548 1549 1549 1550
1482 1482 1474 1470 1470 1472 1473 1479 1485 1484 1480 1485 1490 1495 1496 1498 1499 1504 1508 1514 1519 1524 1529 1532 1535 1537 1538 1539 1540 1541 1542 1543 1543 1544 1545 1545 1545 1546 1546 1546 1547 1547 1548 1548
1479 1474 1470 1470 1472 1474 1474 1477 1482 1485 1481 1482 1489 1497 1497 1497 1498 1501 1506 1511 1517 1522 1527 1531 1534 1536 1538 1539 1540 1541 1541 1542 1542 1543 1544 1544 1545 1545 1545 1545 1545 1546 1545 1545
1473 1470 1470 1472 1473 1473 1479 1473 1475 1478 1484 1490 1492 1506 1499 1495 1497 1499 1503 1509 1515 1520 1525 1529 1532 1535 1536 1538 1539 1540 1540 1541 1541 1542 1543 1543 1544 1544 1544 1544 1544 1544 1544 1544
1473 1469 1471 1474 1472 1470 1473 1468 1471 1474 1481 1488 1490 1501 1501 1494 1499 1500 1502 1506 1512 1518 1523 1528 1531 1534 1536 1537 1538 1539 1540 1540 1541 1541 1542 1542 1543 1543 1543 1543 1543 1543 1542 1542
1470 1467 1468 1470 1468 1468 1468 1470 1473 1476 1483 1500 1494 1500 1502 1496 1496 1498 1500 1505 1511 1516 1521 1526 1530 1533 1535 1537 1538 1539 1540 1540 1540 1541 1541 1542 1542 1542 1542 1542 1542 1542 1542 1541
1477 1471 1468 1468 1471 1469 1471 1482 1497 1503 1507 1504 1493 1498 1501 1492 1492 1495 1499 1504 1510 1515 1520 1525 1529 1532 1535 1537 1538 1539 1540 1540 1540 1541 1541 1541 1542 1542 1542 1542 1542 1541 1541 1540
1491 1489 1473 1470 1472 1475 1477 1484 1504 1518 1518 1509 1503 1506 1502 1494 1491 1494 1499 1504 1510 1515 1520 1525 1529 1532 1535 1537 1538 1538 1540 1540 1541 1541 1541 1541 1541 1542 1542 1542 1541 1540 1540 1539
1491 1488 1473 1470 1470 1472 1481 1485 1485 1497 1500 1505 1505 1504 1500 1496 1496 1499 1502 1507 1512 1517 1521 1525 1529 1532 1535 1537 1538 1539 1540 1541 1541 1541 1542 1542 1541 1542 1542 1541 1541 1540 1540 1539
1481 1487 1477 1472 1470 1469 1472 1479 1487 1497 1509 1513 1508 1510 1510 1504 1502 1503 1506 1510 1515 1518 1522 1526 1529 1532 1535 1537 1538 1539 1540 1541 1542 1542 1542 1542 1542 1542 1542 1541 1541 1540 1539 1538
1477 1486 1481 1476 1478 1482 1479 1480 1485 1492 1497 1509 1516 1518 1504 1503 1502 1505 1509 1513 1516 1520 1523 1526 1530 1532 1535 1537 1538 1539 1540 1541 1542 1542 1542 1542 1542 1542 1542 1542 1541 1540 1539 1538
1479 1484 1488 1481 1476 1475 1476 1476 1481 1495 1499 1498 1508 1519 1502 1502 1505 1508 1512 1516 1519 1522 1524 1527 1530 1532 1535 1537 1538 1539 1540 1541 1542 1543 1543 1542 1542 1542 1542 1542 1541 1540 1539 1539
1481 1488 1498 1493 1490 1485 1482 1477 1476 1481 1490 1501 1511 1520 1506 1506 1509 1513 1516 1519 1522 1524 1526 1528 1530 1533 1535 1537 1539 1540 1541 1542 1542 1543 1543 1542 1542 1542 1542 1542 1541 1541 1540 1539
1483 1487 1495 1503 1499 1492 1491 1483 1479 1483 1494 1501 1506 1513 1510 1510 1512 1516 1520 1522 1524 1526 1528 1530 1532 1534 1536 1537 1539 1540 1541 1542 1543 1543 1543 1543 1542 1542 1542 1542 1542 1541 1540 1539
1484 1490 1488 1488 1486 1485 1487 1486 1484 1487 1490 1498 1503 1508 1512 1512 1514 1518 1521 1524 1526 1528 1529 1531 1533 1535 1536 1538 1539 1541 1542 1542 1543 1543 1543 1543 1543 1543 1543 1543 1543 1542 1541 1540
1485 1492 1491 1489 1483 1483 1488 1487 1487 1489 1492 1496 1502 1510 1512 1514 1516 1520 1523 1525 1527 1529 1531 1533 1534 1536 1537 1538 1539 1541 1542 1543 1543 1544 1544 1544 1544 1544 1544 1544 1543 1542 1541 1540
1485 1492 1496 1494 1484 1485 1497 1492 1491 1494 1496 1499 1507 1512 1513 1516 1519 1521 1524 1526 1528 1530 1532 1533 1535 1536 1537 1538 1539 1540 1542 1543 1544 1544 1545 1545 1545 1545 1545 1544 1544 1543 1542 1541
1488 1491 1493 1495 1495 1508 1504 1492 1493 1497 1502 1504 1507 1511 1514 1518 1521 1523 1525 1527 1529 1531 1532 1534 1535 1536 1537 1538 1539 1540 1542 1543 1544 1545 1545 1546 1546 1546 1546 1545 1544 1544 1543 1542
1485 1490 1495 1499 1504 1507 1502 1497 1497 1501 1509 1509 1510 1513 1516 1519 1522 1526 1528 1529 1530 1532 1533 1534 1536 1537 1538 1539 1540 1541 1542 1544 1545 1545 1546 1546 1546 1546 1546 1546 1545 1545 1544 1544
1484 1487 1494 1499 1508 1516 1510 1500 1500 1503 1513 1513 1513 1515 1517 1519 1522 1528 1529 1530 1531 1533 1534 1535 1537 1538 1539 1540 1541 1542 1543 1544 1545 1546 1547 1547 1547 1547 1547 1547 1546 1546 1545 1545
1489 1490 1494 1498 1506 1511 1506 1502 1502 1512 1520 1516 1516 1518 1520 1521 1524 1528 1530 1531 1533 1534 1536 1537 1538 1539 1540 1541 1542 1543 1544 1545 1546 1547 1547 1548 1548 1548 1548 1547 1547 1547 1546 1546
1491 1493 1494 1498 1508 1517 1507 1505 1510 1516 1516 1517 1519 1521 1522 1525 1527 1529 1531 1533 1534 1536 1537 1538 1539 1540 1541 1542 1543 1544 1545 1546 1547 1548 1548 1548 1549 1549 1549 1548 1548 1548 1547 1547
1491 1495 1496 1502 1511 1512 1511 1512 1515 1516 1518 1519 1521 1523 1525 1527 1529 1531 1532 1534 1536 1537 1539 1540 1541 1542 1543 1544 1544 1545 1547 1547 1548 1548 1549 1549 1550 1550 1550 1550 1549 1549 1548 1548
1493 1494 1498 1504 1509 1511 1513 1516 1517 1518 1520 1521 1523 1524 1526 1528 1530 1532 1534 1536 1537 1539 1540 1541 1542 1543 1544 1545 1546 1547 1548 1548 1549 1549 1550 1550 1550 1551 1551 1551 1551 1550 1550 1549
1494 1496 1500 1506 1510 1513 1516 1517 1519 1520 1522 1523 1525 1526 1528 1530 1532 1533 1535 1537 1538 1539 1541 1542 1543 1544 1545 1546 1547 1548 1549 1549 1549 1550 1550 1551 1551 1552 1551 1551 1551 1551 1550 1550
1497 1499 1502 1506 1510 1512 1517 1518 1520 1521 1523 1525 1526 1528 1530 1532 1533 1535 1536 1538 1539 1540 1541 1543 1544 1545 1546 1547 1548 1549 1549 1550 1550 1551 1551 1552 1552 1552 1552 1552 1552 1551 1551 1550